Home > Weather > Garbsen > Past weeks

Flag for Germany Weather for the Past 2 Weeks in Garbsen, Lower Saxony, Germany

Now
43 °F

Sunny.


Feels Like: 36 °F
Forecast: 35 / 38 °F
Wind: 12 mph from East

Location: Hannover

Current Time: Feb 13, 2016 at 3:05:52 PM

Latest Report: Feb 13, 2016 at 2:20 PM


Visibility: 10 mi

Pressure: 29.30 "Hg

Humidity: 66%

Dew point: 32 °F

Location of GarbsenLocation

Historic Weather in Garbsen — Graph

°F

Garbsen Temperature Yesterday

Maximum temperature yesterday: 43 °F (at 3:50 PM)
Minimum temperature yesterday: 32 °F (at 4:50 AM)
Average temperature yesterday: 36 °F

High & Low Weather Summary for the Past Weeks

 TemperatureHumidityPressure
High55 °F (Feb 7, 11:50 AM)100% (Jan 30, 7:50 PM)30.24 "Hg (Jan 30, 7:50 PM)
Low27 °F (Feb 13, 5:50 AM)59% (Feb 7, 11:50 AM)28.80 "Hg (Feb 9, 6:50 PM)
Average43 °F85%29.68 "Hg
* Reported Jan 29 1:20 PM — Feb 13 1:50 PM, Garbsen, Weather by CustomWeather, © 2016

Note: Actual official high and low records may vary slightly from our data, if they occured in-between our weather recording intervals... More about our weather records

Advertising

Garbsen Weather History for the Previous 24 Hours

 ConditionsComfort  
Time TempWeatherWind HumidityBarometerVisibility
1:50 PM
Sat, Feb 13
43 °FSunny.12 mph71%29.30 "Hg10 mi
1:20 PM43 °FPassing clouds.12 mph66%29.30 "HgN/A
12:50 PM41 °FPassing clouds.12 mph76%29.33 "HgN/A
12:20 PM41 °FPassing clouds.10 mph76%29.33 "HgN/A
11:50 AM39 °FSunny.12 mph81%29.36 "Hg10 mi
11:20 AM37 °FSunny.12 mph87%29.36 "Hg10 mi
10:50 AM36 °FSunny.9 mph87%29.39 "Hg10 mi
10:20 AM34 °FClear.8 mph93%29.39 "Hg4 mi
9:50 AM32 °FIce fog.7 mph100%29.39 "Hg2 mi
9:20 AM30 °FIce fog.7 mph100%29.42 "Hg2 mi
8:50 AM28 °FIce fog.5 mph100%29.42 "Hg2 mi
8:20 AM28 °FIce fog.3 mph100%29.42 "Hg1 mi
7:50 AM27 °FIce fog.6 mph100%29.42 "Hg2 mi
7:20 AM28 °FIce fog.7 mph100%29.42 "Hg2 mi
6:50 AM27 °FIce fog.5 mph100%29.42 "Hg1 mi
6:20 AM28 °FIce fog.6 mph100%29.42 "Hg2 mi
5:50 AM27 °FIce fog.7 mph100%29.42 "Hg2 mi
5:20 AM28 °FIce fog.6 mph100%29.45 "Hg2 mi
4:20 AM30 °FIce fog.5 mph100%29.45 "Hg3 mi
3:20 AM30 °FClear.6 mph100%29.45 "Hg4 mi
2:20 AM30 °FClear.6 mph100%29.47 "Hg4 mi
1:50 AM32 °FClear.3 mph100%29.47 "Hg4 mi
1:20 AM32 °FClear.2 mph100%29.47 "Hg5 mi
12:50 AM32 °FClear.5 mph93%29.47 "Hg10 mi
12:20 AM34 °FPassing clouds.3 mph93%29.47 "HgN/A
11:50 PM
Fri, Feb 12
32 °FClear.3 mph100%29.47 "Hg10 mi
11:20 PM34 °FClear.3 mph93%29.47 "Hg10 mi
10:20 PM36 °FClear.3 mph93%29.50 "Hg10 mi
9:50 PM34 °FClear.5 mph93%29.50 "Hg10 mi
9:20 PM34 °FClear.6 mph93%29.50 "Hg10 mi
8:50 PM34 °FClear.6 mph93%29.50 "Hg10 mi
8:20 PM34 °FClear.6 mph93%29.50 "Hg10 mi
7:50 PM36 °FClear.6 mph87%29.50 "Hg10 mi
7:20 PM37 °FClear.6 mph87%29.50 "Hg10 mi
6:50 PM37 °FClear.7 mph87%29.50 "Hg10 mi
6:20 PM37 °FPartly cloudy.6 mph87%29.50 "HgN/A
5:50 PM37 °FPassing clouds.6 mph87%29.50 "HgN/A
5:20 PM39 °FPartly sunny.6 mph87%29.50 "HgN/A
4:50 PM41 °FPartly sunny.5 mph76%29.50 "HgN/A
4:20 PM41 °FPartly sunny.5 mph76%29.50 "HgN/A
3:50 PM43 °FPartly sunny.8 mph71%29.53 "HgN/A
3:20 PM41 °FPartly sunny.6 mph76%29.53 "HgN/A
Weather by CustomWeather, © 2016

See weather overviewHow to use our weather pages